Mason City, IA

6:23 AM CDT on October 20, 2017 (GMT -0500)
Mason City Municipal

Weather History for KMCW - September, 2013

Change the Weather History Date:

Friday, September 6, 2013

  Actual Average Record
Temperature  
Mean Temperature 77 °F 65 °F  
Max Temperature 89 °F 77 °F 103 °F (1922)
Min Temperature 65 °F 53 °F 37 °F (2011)
Degree Days  
Heating Degree Days 0 3  
Month to date heating degree days 11 15  
Since 1 July heating degree days 49 51  
Cooling Degree Days 12 3  
Month to date cooling degree days 33 19  
Year to date cooling degree days 625 575  
Growing Degree Days 26 (Base 50)    
Moisture  
Dew Point 64 °F    
Average Humidity 71    
Maximum Humidity 100    
Minimum Humidity 41    
Precipitation  
Precipitation 0.00 in 0.12 in 2.29 in (1938)
Month to date precipitation 0.00 0.69  
Year to date precipitation 33.35 27.05  
Snow  
Snow 0.00 in 0.00 in - ()
Month to date snowfall 0.0 0.0  
Since 1 July snowfall 0.0 0.0  
Since 1 September snowfall 0.0 0.0  
Snow Depth 0.00 in    
Sea Level Pressure  
Sea Level Pressure 30.04 in    
Wind  
Wind Speed 10 mph (SSE)    
Max Wind Speed 20 mph    
Max Gust Speed 28 mph    
Visibility 8 miles    
Events      
T = Trace of Precipitation, MM = Missing Value Source: NWS Daily Summary

Daily Weather History Graph

Daily Weather History Graph

Search for Another Location

Airport or City:

Trip Planner

Search our weather history database for the weather conditions in past years. The results will help you decide how hot, cold, wet, or windy it might be!

Date:

Astronomy

Sep. 06, 2013 Rise Set
Actual Time 6:43 AM CDT 7:38 PM CDT
Civil Twilight 6:14 AM CDT 8:07 PM CDT
Nautical Twilight 5:39 AM CDT 8:42 PM CDT
Astronomical Twilight 5:03 AM CDT 9:18 PM CDT
Moon 7:59 AM CDT (9/6) 7:59 PM CDT (9/6)
Length of Visible Light 13h 53m
Length of Day
12h 55m
New Moon, 2% of the Moon is Illuminated
Sep 6
New Moon
Sep 12
First Quarter
Sep 19
Full
Sep 26
Last Quarter
Oct 4
New

Hourly Weather History & Observations

Time (CDT) Temp. Heat Index Dew Point Humidity Pressure Visibility Wind Dir Wind Speed Gust Speed Precip Events Conditions
12:53 AM 68.0 °F - 66.9 °F 96% 30.12 in 9.0 mi SE 4.6 mph - N/A   Clear
1:53 AM 66.9 °F - 66.0 °F 97% 30.12 in 9.0 mi SE 3.5 mph - N/A   Clear
2:53 AM 66.0 °F - 66.0 °F 100% 30.12 in 8.0 mi SE 5.8 mph - N/A   Clear
3:53 AM 66.0 °F - 64.9 °F 96% 30.12 in 8.0 mi SSE 5.8 mph - N/A   Clear
4:53 AM 66.0 °F - 64.9 °F 96% 30.11 in 7.0 mi SSE 9.2 mph - N/A   Clear
5:53 AM 64.9 °F - 64.9 °F 100% 30.12 in 6.0 mi SE 6.9 mph - N/A   Clear
6:51 AM 64.4 °F - 64.4 °F 100% 30.16 in 3.0 mi Calm Calm - N/A   Mostly Cloudy
6:53 AM 64.9 °F - 64.9 °F 100% 30.13 in 3.0 mi Calm Calm - N/A   Overcast
7:02 AM 64.4 °F - 64.4 °F 100% 30.16 in 3.0 mi SSE 4.6 mph - N/A   Overcast
7:53 AM 66.0 °F - 64.9 °F 96% 30.12 in 3.0 mi SE 6.9 mph - N/A   Overcast
8:53 AM 68.0 °F - 66.9 °F 96% 30.12 in 4.0 mi South 8.1 mph - N/A   Mostly Cloudy
9:11 AM 69.8 °F - 66.2 °F 88% 30.14 in 6.0 mi South 10.4 mph - N/A   Scattered Clouds
9:53 AM 73.9 °F - 66.0 °F 76% 30.09 in 10.0 mi SSE 12.7 mph - N/A   Clear
10:53 AM 80.1 °F 81.9 °F 64.9 °F 60% 30.08 in 10.0 mi South 13.8 mph 19.6 mph N/A   Clear
11:53 AM 84.0 °F 85.4 °F 64.0 °F 51% 30.06 in 10.0 mi SSW 16.1 mph 20.7 mph N/A   Clear
12:53 PM 87.1 °F 88.3 °F 64.0 °F 46% 30.03 in 10.0 mi South 17.3 mph 23.0 mph N/A   Clear
1:53 PM 87.1 °F 87.8 °F 63.0 °F 44% 30.01 in 10.0 mi South 16.1 mph 23.0 mph N/A   Clear
2:53 PM 88.0 °F 88.7 °F 63.0 °F 43% 29.99 in 10.0 mi SSW 17.3 mph 23.0 mph N/A   Clear
3:53 PM 89.1 °F 90.0 °F 63.0 °F 42% 29.96 in 10.0 mi SSW 16.1 mph 21.9 mph N/A   Clear
4:53 PM 88.0 °F 88.4 °F 62.1 °F 42% 29.95 in 10.0 mi South 11.5 mph 23.0 mph N/A   Clear
5:53 PM 86.0 °F 86.8 °F 63.0 °F 46% 29.94 in 10.0 mi South 13.8 mph - N/A   Clear
6:53 PM 82.0 °F 83.4 °F 64.0 °F 54% 29.93 in 10.0 mi SSE 10.4 mph - N/A   Clear
7:53 PM 77.0 °F - 63.0 °F 62% 29.93 in 10.0 mi South 9.2 mph - N/A   Scattered Clouds
8:53 PM 73.0 °F - 64.0 °F 73% 29.93 in 10.0 mi South 6.9 mph - N/A   Clear
9:53 PM 71.1 °F - 64.0 °F 78% 29.91 in 10.0 mi South 9.2 mph - N/A   Scattered Clouds
10:53 PM 69.1 °F - 63.0 °F 81% 29.91 in 10.0 mi South 6.9 mph - N/A   Clear
11:53 PM 68.0 °F - 62.1 °F 81% 29.91 in 10.0 mi South 4.6 mph - N/A   Clear